CZ-6A DEB, 54432

Orbit data source: Space-Track

CZ-6A DEB, 54432 is space debris in SSO originally from a launch on Fri, 11 Nov 2022 UTC launched from the Taiyaun Space Center, China (TSC). Debris objects in space refer to the collection of defunct objects orbiting the Earth. Examples of debris include non-operational satellites, rocket bodies, and fragments generated from explosions, collisions, or faulty payload assembly.

Loading next visibility...
Identifier
54432, 2022-151FG
Orbit
SSO
Country
Flag of CNCN / PRC
Related business
Manufacturer
SAST
Mission
Spacecraft
Bus & Motor
Unknown
Mass
Unknown
Launch date (UTC)
2022-11-11 (3 years ago)
Launch vehicle
Unknown
Launch site
Taiyaun Space Center, China (TSC)
Object type
Payload
Rocket body
Debris
Shape & HBR
Unknown shape, 0.1 m
Radar Cross Section
Small (<0.1 m²)

Expand to show TLE details & history
Last TLE update: 18 hours ago

TLE from 18 hours ago
0 CZ-6A DEB
1 54432U 22151FG  25349.96881250  .00002750  00000-0  14555-2 0  9997
2 54432  98.9920 350.0078 0173751 140.8909 220.4969 14.07087611157768
Epoch: 2025-12-15T23:15Z
TLE epoch observation values (Epoch: 2025-12-15T23:15:05.400Z)
Latitude
-0.00003°
Longitude
-83.62446°
Altitude
968.928 km
Speed
7.318 km/s
True Right ascension
23h 20m 01s
True Declination
0° 00' 00"
Sunlit
Object was in daylight at epoch
Visualization orbit readout
Latitude
Unknown
Longitude
Unknown
Altitude
Unknown
Speed
Unknown
Apparent Right ascension
Unknown
Apparent Declination
Unknown
Sunlit
N/A
Visualization observer readout
Local Sidereal Time
15:54:02
Azimuth
Unknown
Elevation
Unknown
Doppler factor
Unknown
Orbital elements
Apogee altitude
992.42 km
Perigee altitude
740.666 km
Semi-major axis
7,244.68 km
Eccentricity
0.01738
Inclination
98.992°
RAAN
350.0078°
Arg. of periapsis
140.8909°
True anomaly
219.22503°
Mean anomaly
220.4969°
Eccentric anomaly
219.85887°
Mean motion
3.51977 °/min
Orbital period
102.28 mins
BSTAR
0.0014555
Loading maneuver chart data...
Computing Atmospheric mass density...
Loading historical data...
Loading historical data...
Loading historical data...
Loading historical data...
Loading historical data...
Loading historical data...
Loading historical data...

Documentation

Showing up to 5 results
|